カタログに戻る

DELTA 1 DEB

運用中PO
NORAD 21354·DEBRIS·🇺🇸 United States

打ち上げ Jun 12, 1975 から Vandenberg Space Force Base

Loading…

次のパス (今後24時間)

TLE

最新Source: Space-Track

元期: Sep 14, 2026, 04:48 UTC

1 21354U 75052BY  26257.20050300  .00000954  00000-0  18000-2 0  9995
2 21354  99.5048 158.3484 0225050 106.3370  45.1208 13.31629451700618

AllMySatでDELTA 1 DEBをリアルタイム追跡

Download on the App Store